Date String (YYYY-MM-DD hh:mm:ss) UTC,Instrument flags,absolute air pressure of the measurement (hPa),sample flow rate (lpm),inlet stack bypass flow (lpm),air temperature of the measurement (°C),ambient temperature measured by the external sensor (°C),aerosol sample conditioner tube jacket temperature (°C),OPC LED temperature (°C),internal box temperature (°C),relative humidity of the measurement (%),span deviation,mass concentration of particles derived from Lorenz-Mie calculation of OPC scattering (μg/m³),mass concentration of particles derived from Lorenz-Mie calculation of OPC scattering (μg/m³),mass concentration of particles derived from Lorenz-Mie calculation of OPC scattering (μg/m³)
DateTimeUTC,F1_M11,P_M11,Q1_M11,Q2_M11,T1_M11,T2_M11,T3_M11,T4_M11,T5_M11,U1_M11,ZSPAN_M11,X2_M11,X0_M11,X1_M11
2024-03-24 04:00:00,SystemResetWarning,0814.9,5.00,000.00,025.1,024.2,000.0,033.7,027.0,17.9,0000.0,0005.86,0016.43,0004.62
2024-03-24 04:01:00,SystemResetWarning,0814.9,5.01,000.00,025.1,024.2,000.0,033.7,027.0,17.9,0000.0,0005.84,0016.47,0004.61
2024-03-24 04:02:00,SystemResetWarning,0814.8,5.00,000.00,025.1,024.2,000.0,033.7,027.0,17.9,0000.0,0005.79,0016.23,0004.60
2024-03-24 04:03:00,SystemResetWarning,0814.8,4.99,000.00,025.1,024.2,000.0,033.7,027.0,17.9,0000.0,0005.79,0015.87,0004.59
2024-03-24 04:04:00,SystemResetWarning,0814.8,5.00,000.00,025.1,024.2,000.0,033.7,026.9,17.9,0000.0,0005.77,0015.38,0004.58
2024-03-24 04:05:00,SystemResetWarning,0814.8,5.00,000.00,025.1,024.2,000.0,033.7,026.9,18.0,0000.0,0005.75,0014.96,0004.58
2024-03-24 04:06:00,SystemResetWarning,0814.8,5.00,000.00,025.1,024.2,000.0,033.7,026.9,18.0,0000.0,0005.74,0014.08,0004.58
2024-03-24 04:07:00,SystemResetWarning,0814.8,5.01,000.00,025.1,024.2,000.0,033.7,026.9,18.0,0000.0,0005.70,0013.48,0004.57
2024-03-24 04:08:00,SystemResetWarning,0814.7,5.00,000.00,025.1,024.2,000.0,033.7,026.9,18.0,0000.0,0005.71,0013.09,0004.57
2024-03-24 04:09:00,SystemResetWarning,0814.7,5.01,000.00,025.1,024.2,000.0,033.7,026.9,18.0,0000.0,0005.66,0012.82,0004.57
2024-03-24 04:10:00,SystemResetWarning,0814.7,5.01,000.00,025.0,024.2,000.0,033.7,026.9,17.9,0000.0,0005.66,0012.43,0004.58
2024-03-24 04:11:00,SystemResetWarning,0814.6,5.00,000.00,025.0,024.2,000.0,033.7,026.9,17.9,0000.0,0005.68,0012.51,0004.58
2024-03-24 04:12:00,SystemResetWarning,0814.7,4.99,000.00,025.0,024.2,000.0,033.7,026.9,17.8,0000.0,0005.66,0012.34,0004.57
2024-03-24 04:13:00,SystemResetWarning,0814.6,4.99,000.00,025.0,024.2,000.0,033.7,026.9,17.7,0000.0,0005.70,0012.11,0004.57
2024-03-24 04:14:00,SystemResetWarning,0814.6,5.00,000.00,025.0,024.2,000.0,033.7,026.9,17.7,0000.0,0005.70,0012.37,0004.57
2024-03-24 04:15:00,SystemResetWarning,0814.6,5.01,000.00,025.0,024.2,000.0,033.7,026.9,17.5,0000.0,0005.73,0012.96,0004.56
2024-03-24 04:16:00,SystemResetWarning,0814.6,5.00,000.00,025.0,024.2,000.0,033.7,026.9,17.5,0000.0,0005.72,0012.86,0004.54
2024-03-24 04:17:00,SystemResetWarning,0814.6,5.00,000.00,025.0,024.2,000.0,033.7,026.9,17.6,0000.0,0005.71,0012.88,0004.52
2024-03-24 04:18:00,SystemResetWarning,0814.6,5.00,000.00,025.0,024.2,000.0,033.6,026.9,17.5,0000.0,0005.69,0012.59,0004.50
2024-03-24 04:19:00,SystemResetWarning,0814.6,5.01,000.00,025.0,024.1,000.0,033.6,026.9,17.4,0000.0,0005.65,0012.76,0004.48
2024-03-24 04:20:00,SystemResetWarning,0814.5,4.99,000.00,025.0,024.1,000.0,033.6,026.9,16.9,0000.0,0005.59,0012.79,0004.44
2024-03-24 04:21:00,SystemResetWarning,0814.5,4.99,000.00,025.0,024.1,000.0,033.6,026.8,16.4,0000.0,0005.48,0012.59,0004.36
2024-03-24 04:22:00,SystemResetWarning,0814.5,4.99,000.00,025.0,024.1,000.0,033.6,026.8,16.3,0000.0,0005.37,0012.48,0004.27
2024-03-24 04:23:00,SystemResetWarning,0814.5,5.00,000.00,025.0,024.1,000.0,033.6,026.8,16.3,0000.0,0005.34,0012.23,0004.21
2024-03-24 04:24:00,SystemResetWarning,0814.5,5.00,000.00,025.0,024.1,000.0,033.6,026.8,16.3,0000.0,0005.22,0011.84,0004.15
2024-03-24 04:25:00,SystemResetWarning,0814.5,5.00,000.00,024.9,024.1,000.0,033.6,026.8,16.6,0000.0,0005.16,0011.52,0004.09
2024-03-24 04:26:00,SystemResetWarning,0814.5,5.00,000.00,024.9,024.1,000.0,033.6,026.8,16.5,0000.0,0005.03,0011.68,0004.05
2024-03-24 04:27:00,SystemResetWarning,0814.5,5.01,000.00,024.9,024.0,000.0,033.6,026.8,16.8,0000.0,0005.02,0011.90,0004.02
2024-03-24 04:28:00,SystemResetWarning,0814.4,5.00,000.00,024.9,024.0,000.0,033.6,026.8,16.7,0000.0,0005.00,0012.66,0003.99
2024-03-24 04:29:00,SystemResetWarning,0814.4,5.00,000.00,024.9,024.0,000.0,033.6,026.8,16.3,0000.0,0004.94,0013.19,0003.96
2024-03-24 04:30:00,SystemResetWarning,0814.4,5.00,000.00,024.9,024.0,000.0,033.6,026.8,16.6,0000.0,0004.93,0013.36,0003.93
2024-03-24 04:31:00,SystemResetWarning,0814.4,5.00,000.00,024.9,024.0,000.0,033.6,026.8,16.6,0000.0,0004.92,0013.14,0003.91
2024-03-24 04:32:00,SystemResetWarning,0814.4,5.00,000.00,024.9,024.0,000.0,033.6,026.8,16.6,0000.0,0004.96,0013.46,0003.93
2024-03-24 04:33:00,SystemResetWarning,0814.3,4.99,000.00,024.9,024.0,000.0,033.6,026.7,16.4,0000.0,0004.97,0013.65,0003.95
2024-03-24 04:34:00,SystemResetWarning,0814.3,5.00,000.00,024.9,024.0,000.0,033.6,026.7,16.1,0000.0,0004.95,0014.76,0003.96
2024-03-24 04:35:00,SystemResetWarning,0814.3,5.00,000.00,024.9,024.0,000.0,033.5,026.7,15.9,0000.0,0004.95,0015.55,0003.95
2024-03-24 04:36:00,SystemResetWarning,0814.3,5.01,000.00,024.9,024.0,000.0,033.5,026.7,16.5,0000.0,0004.95,0016.21,0003.95
2024-03-24 04:37:00,SystemResetWarning,0814.3,5.01,000.00,024.9,024.0,000.0,033.5,026.7,16.8,0000.0,0005.00,0015.90,0003.96
2024-03-24 04:38:00,SystemResetWarning,0814.3,4.98,000.00,024.8,024.0,000.0,033.5,026.7,16.9,0000.0,0005.02,0015.68,0003.97
2024-03-24 04:39:00,SystemResetWarning,0814.3,5.00,000.00,024.8,024.0,000.0,033.5,026.7,16.9,0000.0,0004.96,0014.61,0003.97
2024-03-24 04:40:00,SystemResetWarning,0814.3,4.99,000.00,024.8,024.0,000.0,033.5,026.7,16.7,0000.0,0004.97,0013.99,0003.98
2024-03-24 04:41:00,SystemResetWarning,0814.3,5.00,000.00,024.8,024.0,000.0,033.5,026.7,16.6,0000.0,0004.96,0014.68,0003.97
2024-03-24 04:42:00,SystemResetWarning,0814.3,5.00,000.00,024.8,024.0,000.0,033.5,026.7,16.9,0000.0,0005.00,0014.67,0003.97
2024-03-24 04:43:00,SystemResetWarning,0814.3,5.00,000.00,024.8,024.0,000.0,033.5,026.7,17.6,0000.0,0005.06,0014.97,0004.00
2024-03-24 04:44:00,SystemResetWarning,0814.3,5.00,000.00,024.8,024.0,000.0,033.5,026.7,17.8,0000.0,0005.11,0014.92,0004.06
2024-03-24 04:45:00,SystemResetWarning,0814.3,5.00,000.00,024.8,024.0,000.0,033.5,026.7,17.4,0000.0,0005.21,0014.67,0004.11
2024-03-24 04:46:00,SystemResetWarning,0814.3,5.00,000.00,024.8,024.0,000.0,033.5,026.7,17.0,0000.0,0005.26,0013.66,0004.15
2024-03-24 04:47:00,SystemResetWarning,0814.3,5.00,000.00,024.8,024.0,000.0,033.5,026.7,17.1,0000.0,0005.27,0013.42,0004.18
2024-03-24 04:48:00,SystemResetWarning,0814.3,4.99,000.00,024.8,023.9,000.0,033.5,026.7,17.5,0000.0,0005.28,0012.60,0004.22
2024-03-24 04:49:00,SystemResetWarning,0814.3,4.99,000.00,024.8,023.9,000.0,033.5,026.7,17.5,0000.0,0005.31,0012.70,0004.25
2024-03-24 04:50:00,SystemResetWarning,0814.4,5.00,000.00,024.8,023.9,000.0,033.4,026.7,17.5,0000.0,0005.35,0012.85,0004.27
2024-03-24 04:51:00,SystemResetWarning,0814.3,5.01,000.00,024.8,023.9,000.0,033.4,026.7,17.3,0000.0,0005.41,0013.36,0004.30
2024-03-24 04:52:00,SystemResetWarning,0814.3,5.01,000.00,024.8,023.9,000.0,033.4,026.7,17.1,0000.0,0005.47,0012.49,0004.32
2024-03-24 04:53:00,SystemResetWarning,0814.3,5.00,000.00,024.8,023.9,000.0,033.4,026.7,17.0,0000.0,0005.42,0012.26,0004.34
2024-03-24 04:54:00,SystemResetWarning,0814.3,5.00,000.00,024.8,023.9,000.0,033.4,026.7,16.6,0000.0,0005.38,0012.02,0004.31
2024-03-24 04:55:00,SystemResetWarning,0814.2,5.00,000.00,024.7,023.9,000.0,033.4,026.7,17.5,0000.0,0005.39,0012.42,0004.30
2024-03-24 04:56:00,SystemResetWarning,0814.2,5.00,000.00,024.7,023.9,000.0,033.4,026.6,17.9,0000.0,0005.42,0012.78,0004.32
2024-03-24 04:57:00,SystemResetWarning,0814.2,5.00,000.00,024.7,023.9,000.0,033.4,026.6,18.0,0000.0,0005.54,0014.53,0004.37
2024-03-24 04:58:00,SystemResetWarning,0814.2,5.00,000.00,024.7,023.9,000.0,033.4,026.6,17.9,0000.0,0005.65,0015.06,0004.42
2024-03-24 04:59:00,SystemResetWarning,0814.2,5.00,000.00,024.7,023.9,000.0,033.4,026.6,17.8,0000.0,0005.70,0015.12,0004.44
